Location: Bukit Lungun
(2.6833°N, 113.9667°E)
Time: 13:45:54
(UTC+00:00)

Intelsat 5-1 Rocket - Pass Details

Date: 02 March 2021
Orbit: 311 x 7584 km, 23.9° (Epoch: 20 April)

Event Time Altitude Azimuth Distance (km) Brightness Sun altitude
Exits shadow 21:10:13 - 220° (SW) 3,399 5.5 -21.6°
Reaches altitude 10° 21:10:55 10° 217° (SW) 3,136 5.4 -21.5°
Maximum altitude 21:15:30 18° 175° (S) 1,712 4.4 -20.3°
Drops below altitude 10° 21:18:14 10° 128° (SE) 1,727 5.2 -19.7°
Sets 21:20:17 0° 105° (ESE) 2,297 6.6 -19.1°
